QPF
0.28 0.20 0.11 0.07 0.04 0.00 0.00 0.00 0.00 0.00 0.00 0.00 0.00 0.00 0.00 0.00 0.00 0.00 0.00 0.00 0.00 0.00 0.00 0.00 0.00 0.00 0.00 0.00 0.00 0.00 0.00 0.00
0.19 0.09 0.04 0.05 0.04 0.00 0.00 0.00 0.00 0.00 0.00 0.00 0.00 0.00 0.00 0.00 0.00 0.00 0.00 0.00 0.00 0.00 0.00 0.00 0.00 0.00 0.00 0.00 0.00 0.00 0.00 0.00
0.10 0.05 0.01 0.04 0.00 0.00 0.00 0.00 0.00 0.00 0.00 0.00 0.00 0.00 0.00 0.00 0.00 0.00 0.00 0.00 0.00 0.00 0.00 0.00 0.00 0.00 0.00 0.00 0.00 0.00 0.00 0.00
0.06 0.01 0.00 0.01 0.00 0.00 0.00 0.00 0.00 0.00 0.00 0.00 0.00 0.00 0.00 0.00 0.00 0.00 0.00 0.00 0.00 0.00 0.00 0.00 0.00 0.00 0.00 0.00 0.00 0.00 0.00 0.00
0.00 0.00 0.00 0.00 0.00 0.00 0.00 0.00 0.00 0.00 0.00 0.00 0.00 0.00 0.00 0.00 0.00 0.00 0.00 0.00 0.00 0.00 0.00 0.00 0.00 0.00 0.00 0.00 0.00 0.00 0.00 0.00
0.00 0.00 0.00 0.00 0.00 0.00 0.00 0.00 0.00 0.00 0.00 0.00 0.00 0.00 0.00 0.00 0.00 0.00 0.00 0.00 0.00 0.00 0.00 0.00 0.00 0.00 0.00 0.00 0.00 0.00 0.00 0.00
0.00 0.00 0.01 0.00 0.00 0.00 0.00 0.00 0.00 0.00 0.00 0.00 0.00 0.00 0.00 0.00 0.00 0.00 0.00 0.00 0.00 0.00 0.00 0.00 0.00 0.00 0.00 0.00 0.00 0.00 0.00 0.00
0.00 0.00 0.02 0.00 0.00 0.00 0.00 0.00 0.00 0.00 0.00 0.00 0.00 0.00 0.00 0.00 0.00 0.00 0.00 0.00 0.00 0.00 0.00 0.00 0.00 0.00 0.00 0.00 0.00 0.00 0.00 0.00
0.00 0.00 0.02 0.00 0.00 0.00 0.00 0.00 0.00 0.00 0.00 0.00 0.00 0.00 0.00 0.00 0.00 0.00 0.00 0.00 0.00 0.00 0.00 0.00 0.00 0.00 0.00 0.00 0.00 0.00 0.00 0.00
0.00 0.00 0.00 0.00 0.00 0.00 0.00 0.00 0.00 0.01 0.03 0.03 0.02 0.01 0.00 0.00 0.00 0.00 0.00 0.00 0.00 0.00 0.00 0.00 0.00 0.00 0.00 0.00 0.00 0.00 0.00 0.00
0.00 0.00 0.00 0.00 0.00 0.00 0.00 0.00 0.00 0.02 0.05 0.03 0.02 0.01 0.00 0.00 0.00 0.00 0.00 0.00 0.00 0.00 0.00 0.00 0.00 0.00 0.00 0.00 0.00 0.00 0.00 0.00
0.00 0.00 0.00 0.00 0.00 0.00 0.00 0.01 0.04 0.04 0.02 0.00 0.00 0.00 0.00 0.00 0.00 0.00 0.00 0.00 0.00 0.00 0.00 0.00 0.00 0.00 0.00 0.00 0.00 0.00 0.00 0.00
0.00 0.00 0.00 0.00 0.00 0.00 0.00 0.03 0.06 0.03 0.00 0.00 0.00 0.00 0.00 0.00 0.00 0.00 0.00 0.00 0.00 0.00 0.00 0.00 0.00 0.00 0.00 0.00 0.00 0.00 0.00 0.00
0.00 0.00 0.00 0.00 0.00 0.00 0.00 0.02 0.03 0.01 0.00 0.00 0.00 0.00 0.00 0.00 0.00 0.00 0.00 0.00 0.00 0.00 0.00 0.00 0.00 0.00 0.00 0.00 0.00 0.00 0.00 0.00
0.00 0.00 0.00 0.00 0.00 0.00 0.00 0.05 0.06 0.02 0.00 0.00 0.00 0.00 0.00 0.00 0.00 0.00 0.00 0.00 0.00 0.00 0.00 0.00 0.00 0.00 0.00 0.00 0.00 0.00 0.00 0.00
0.00 0.00 0.00 0.03 0.04 0.01 0.02 0.02 0.03 0.03 0.02 0.01 0.00 0.00 0.00 0.00 0.00 0.00 0.00 0.00 0.00 0.00 0.00 0.00 0.00 0.00 0.00 0.00 0.00 0.00 0.00 0.00
0.00 0.00 0.04 0.05 0.11 0.07 0.06 0.04 0.05 0.05 0.02 0.01 0.00 0.00 0.00 0.00 0.00 0.00 0.00 0.00 0.00 0.00 0.00 0.00 0.00 0.00 0.00 0.00 0.00 0.00 0.00 0.00
0.00 0.00 0.01 0.06 0.08 0.03 0.02 0.02 0.02 0.02 0.01 0.01 0.01 0.01 0.00 0.00 0.00 0.00 0.00 0.00 0.00 0.00 0.00 0.00 0.00 0.00 0.00 0.00 0.00 0.00 0.00 0.00
0.00 0.07 0.07 0.06 0.08 0.04 0.03 0.03 0.02 0.01 0.01 0.04 0.03 0.01 0.00 0.00 0.00 0.00 0.00 0.00 0.00 0.00 0.00 0.00 0.00 0.00 0.00 0.00 0.00 0.00 0.00 0.00
0.00 0.09 0.14 0.09 0.09 0.07 0.05 0.02 0.01 0.01 0.02 0.05 0.03 0.00 0.00 0.00 0.00 0.00 0.00 0.00 0.00 0.00 0.00 0.00 0.00 0.00 0.00 0.00 0.00 0.00 0.00 0.00
MSLP
1017.36 1018.03 1018.95 1019.12 1019.08 1019.47 1019.87 1019.90 1020.59 1020.73 1021.11 1021.30 1021.71 1022.06 1022.32 1022.79 1023.02 1023.28 1023.61 1023.51 1023.63 1023.79 1023.96 1024.10 1024.32 1024.70 1024.81 1024.89 1025.21 1025.16 1024.74 1024.56
1017.60 1018.47 1019.83 1020.63 1019.99 1020.94 1020.56 1020.25 1020.88 1021.07 1021.38 1021.79 1022.02 1022.46 1022.79 1023.01 1023.20 1023.44 1023.67 1023.87 1023.90 1024.13 1024.26 1024.66 1024.85 1025.10 1025.37 1025.19 1025.45 1025.46 1025.08 1024.95
1018.54 1018.95 1019.98 1020.49 1020.20 1020.62 1021.31 1020.89 1021.29 1021.37 1021.77 1022.09 1022.45 1022.67 1023.11 1023.22 1023.46 1023.68 1023.95 1024.32 1024.42 1024.52 1024.75 1024.97 1025.19 1025.48 1025.55 1025.67 1025.49 1025.55 1025.43 1025.31
1018.68 1019.58 1019.89 1019.90 1020.97 1020.83 1021.21 1021.61 1021.52 1021.96 1022.14 1022.34 1022.66 1023.09 1023.29 1023.54 1023.72 1024.07 1024.43 1024.65 1024.84 1024.88 1025.18 1025.36 1025.25 1025.50 1025.78 1025.78 1025.88 1025.99 1025.64 1025.61
1020.05 1019.82 1019.87 1020.46 1021.29 1021.41 1020.98 1021.82 1022.10 1022.40 1022.48 1022.44 1023.05 1023.40 1023.67 1023.91 1024.10 1024.46 1024.72 1024.81 1024.81 1025.20 1025.61 1025.67 1025.93 1025.99 1026.09 1026.21 1026.37 1026.22 1026.06 1025.98
1020.60 1020.80 1021.21 1021.52 1021.05 1021.27 1021.81 1022.22 1022.38 1022.56 1022.59 1022.95 1023.18 1023.51 1023.89 1024.22 1024.49 1024.82 1024.89 1024.98 1025.30 1025.57 1025.81 1026.20 1026.28 1026.54 1026.56 1026.63 1026.63 1026.43 1026.41 1026.35
1020.84 1020.94 1021.48 1021.50 1021.46 1021.72 1021.87 1022.13 1022.33 1022.33 1022.43 1023.08 1023.17 1023.69 1024.15 1024.37 1024.78 1025.07 1025.06 1025.21 1025.53 1025.84 1025.97 1026.10 1026.33 1026.75 1026.93 1026.85 1027.09 1026.97 1026.77 1026.53
1020.74 1020.74 1020.86 1021.32 1021.64 1021.84 1021.88 1022.06 1022.24 1022.39 1022.68 1023.08 1023.41 1023.96 1024.09 1024.35 1024.76 1025.14 1025.34 1025.30 1025.83 1025.84 1026.15 1026.41 1026.72 1026.89 1027.28 1027.42 1027.50 1027.23 1026.98 1026.79
1020.65 1020.85 1021.08 1021.06 1021.39 1021.62 1021.88 1022.08 1022.26 1022.63 1022.84 1023.23 1023.56 1023.81 1024.15 1024.39 1024.78 1025.32 1025.68 1025.78 1026.10 1026.43 1026.80 1026.94 1026.90 1027.29 1027.58 1027.76 1027.69 1027.53 1027.31 1027.04
1020.33 1020.47 1020.80 1020.91 1021.34 1021.57 1021.90 1022.16 1022.16 1022.66 1023.11 1023.50 1023.68 1023.96 1024.24 1024.59 1025.05 1025.51 1025.76 1026.02 1026.34 1026.51 1026.84 1026.87 1027.14 1027.39 1027.64 1027.84 1028.11 1027.88 1027.77 1027.52
1020.05 1020.42 1020.74 1020.83 1021.13 1021.39 1021.87 1022.09 1022.46 1022.84 1023.32 1023.54 1023.76 1024.09 1024.43 1024.65 1025.10 1025.66 1025.95 1026.33 1026.50 1026.69 1027.08 1027.02 1027.25 1027.40 1027.65 1028.02 1028.33 1028.21 1028.05 1027.89
1019.57 1019.97 1020.24 1020.55 1020.85 1021.47 1021.99 1022.37 1022.66 1023.08 1023.33 1023.34 1023.78 1024.04 1024.40 1024.89 1025.51 1026.05 1026.08 1026.37 1026.66 1026.91 1026.97 1027.71 1028.01 1028.00 1027.84 1027.94 1028.14 1028.30 1028.31 1028.30
1019.15 1019.50 1019.89 1020.48 1021.02 1021.38 1021.87 1022.16 1022.88 1023.30 1023.27 1023.59 1023.70 1024.03 1024.56 1025.03 1025.42 1026.01 1026.16 1026.33 1026.67 1026.90 1027.43 1027.99 1028.16 1028.20 1027.86 1027.87 1028.14 1028.43 1028.43 1028.39
1018.62 1019.07 1019.60 1020.22 1020.41 1020.72 1021.23 1022.09 1022.87 1022.75 1023.07 1023.54 1023.93 1024.13 1024.49 1024.92 1025.30 1025.66 1026.16 1026.44 1026.86 1027.19 1027.48 1027.80 1027.87 1027.76 1027.56 1027.82 1027.50 1027.97 1028.20 1028.33
1017.98 1018.75 1019.35 1019.82 1020.05 1020.62 1021.57 1022.37 1022.85 1023.26 1023.54 1023.50 1023.89 1024.13 1024.49 1024.90 1025.29 1025.41 1026.03 1026.49 1027.00 1027.27 1027.27 1027.02 1027.74 1027.88 1027.58 1027.45 1027.13 1027.12 1027.71 1028.09
1017.52 1017.99 1018.55 1019.25 1019.84 1020.28 1020.49 1021.13 1021.82 1022.23 1023.11 1023.46 1023.84 1024.30 1024.71 1024.93 1025.22 1025.49 1025.99 1026.46 1026.72 1027.16 1027.79 1027.78 1027.37 1027.44 1027.75 1027.76 1027.75 1027.82 1027.56 1027.25
1016.80 1017.60 1018.38 1019.01 1019.73 1020.06 1020.46 1020.81 1021.31 1022.20 1023.00 1023.65 1024.23 1024.61 1024.73 1025.00 1025.31 1025.50 1025.60 1025.91 1026.36 1026.31 1027.53 1027.98 1027.61 1027.35 1027.29 1027.41 1027.63 1027.87 1028.07 1027.80
1016.22 1017.03 1017.77 1018.54 1019.22 1019.49 1019.99 1020.22 1020.81 1021.89 1022.83 1023.44 1023.96 1024.30 1024.75 1024.84 1025.15 1025.32 1025.38 1025.55 1025.96 1026.57 1027.05 1027.31 1027.03 1027.05 1027.35 1027.49 1027.45 1027.52 1027.49 1027.69
1015.76 1016.53 1017.60 1018.60 1018.96 1019.32 1019.53 1019.87 1020.42 1021.01 1021.90 1022.47 1023.44 1023.92 1024.15 1024.25 1024.50 1025.01 1025.05 1025.50 1026.11 1026.54 1026.77 1026.69 1026.60 1027.06 1027.24 1027.20 1027.42 1027.53 1027.73 1027.77
1014.96 1015.60 1016.40 1016.29 1017.62 1018.47 1019.26 1019.66 1019.86 1020.48 1021.13 1021.75 1022.34 1022.74 1023.33 1024.19 1024.67 1024.89 1025.15 1025.52 1026.12 1026.57 1026.26 1026.25 1026.38 1026.67 1026.83 1026.91 1027.02 1027.31 1027.62 1027.73
Thickness
5651 5648 5640 5639 5638 5638 5638 5640 5637 5636 5636 5637 5635 5634 5632 5629 5628 5629 5628 5630 5630 5630 5628 5627 5624 5619 5619 5618 5612 5611 5611 5611
5646 5640 5628 5615 5622 5618 5627 5634 5630 5631 5630 5628 5630 5627 5625 5625 5626 5625 5624 5624 5625 5623 5622 5617 5615 5612 5610 5612 5608 5605 5605 5604
5633 5631 5623 5616 5621 5621 5613 5620 5621 5623 5623 5623 5621 5621 5621 5622 5623 5621 5619 5617 5619 5618 5617 5614 5612 5608 5607 5604 5603 5598 5596 5595
5631 5621 5613 5612 5605 5610 5611 5607 5612 5611 5614 5616 5618 5618 5619 5617 5619 5615 5614 5614 5613 5613 5611 5610 5609 5604 5600 5599 5594 5590 5591 5589
5611 5613 5613 5604 5598 5601 5611 5606 5606 5606 5610 5615 5613 5613 5613 5612 5612 5610 5609 5609 5610 5607 5603 5603 5599 5596 5594 5591 5586 5585 5584 5581
5599 5598 5594 5592 5602 5602 5601 5601 5604 5606 5610 5610 5611 5610 5610 5607 5607 5605 5606 5606 5604 5601 5599 5596 5593 5588 5586 5583 5581 5579 5575 5572
5594 5592 5588 5592 5596 5599 5600 5601 5603 5608 5611 5607 5610 5606 5605 5605 5604 5600 5602 5602 5598 5595 5593 5590 5587 5582 5578 5576 5570 5567 5565 5562
5592 5597 5597 5595 5599 5600 5602 5604 5606 5610 5609 5607 5608 5602 5605 5604 5600 5597 5597 5598 5593 5591 5587 5582 5578 5574 5569 5564 5558 5556 5553 5551
5598 5598 5596 5599 5602 5605 5604 5605 5609 5607 5608 5607 5604 5603 5600 5601 5598 5594 5590 5591 5587 5582 5577 5574 5571 5564 5558 5552 5548 5545 5542 5540
5603 5604 5604 5606 5605 5606 5606 5606 5611 5608 5604 5601 5600 5599 5599 5597 5591 5588 5588 5584 5579 5576 5570 5566 5560 5553 5547 5541 5535 5533 5530 5528
5609 5608 5606 5609 5608 5609 5606 5608 5605 5603 5599 5598 5598 5597 5594 5592 5588 5584 5581 5575 5572 5566 5559 5556 5549 5544 5538 5531 5525 5522 5519 5514
5613 5611 5611 5610 5610 5607 5603 5601 5601 5599 5596 5598 5594 5594 5592 5587 5581 5575 5573 5568 5562 5556 5552 5541 5535 5531 5528 5523 5517 5511 5506 5501
5617 5616 5614 5610 5607 5604 5601 5601 5596 5592 5593 5592 5594 5591 5587 5582 5576 5569 5565 5560 5554 5548 5539 5531 5525 5520 5519 5515 5507 5500 5495 5490
5619 5616 5615 5610 5610 5608 5605 5598 5594 5596 5596 5590 5587 5586 5582 5576 5570 5565 5557 5551 5544 5537 5531 5523 5518 5514 5513 5504 5504 5495 5486 5480
5625 5619 5616 5614 5614 5609 5600 5596 5594 5590 5588 5588 5582 5579 5573 5569 5563 5559 5550 5543 5534 5527 5523 5521 5510 5501 5499 5498 5496 5495 5479 5471
5627 5625 5622 5616 5611 5607 5607 5603 5599 5595 5586 5580 5577 5571 5565 5559 5555 5550 5543 5534 5527 5519 5510 5506 5502 5496 5487 5482 5477 5471 5471 5468
5630 5624 5617 5613 5606 5604 5601 5599 5598 5589 5582 5575 5568 5562 5558 5553 5547 5542 5536 5529 5522 5517 5501 5492 5489 5484 5480 5474 5466 5458 5450 5448
5629 5623 5619 5612 5605 5606 5602 5602 5597 5587 5577 5570 5564 5558 5551 5547 5539 5534 5529 5523 5515 5504 5496 5487 5482 5478 5470 5462 5456 5450 5444 5433
5631 5623 5615 5605 5603 5602 5602 5600 5595 5588 5578 5572 5562 5554 5548 5543 5537 5528 5523 5514 5503 5496 5487 5479 5474 5465 5458 5452 5443 5435 5424 5415
5635 5628 5621 5618 5608 5602 5597 5595 5592 5585 5577 5569 5562 5555 5546 5534 5526 5518 5512 5504 5495 5483 5478 5471 5465 5457 5448 5440 5431 5420 5409 5400